SL-12 R/B(AUX MOTOR), 36406

Orbit data source: Space-Track

SL-12 R/B(AUX MOTOR), 36406 is space debris in HEO originally from a launch on Mon, 01 Mar 2010 UTC launched from the Tyuratam Missile And Space Complex (TTMTR). Debris objects in space refer to the collection of defunct objects orbiting the Earth. Examples of debris include non-operational satellites, rocket bodies, and fragments generated from explosions, collisions, or faulty payload assembly.

Loading next visibility...
Identifier
36406, 2010-007G
Orbit
HEO
Country
Flag of CISCIS
Related business
Manufacturer
RKKE
Mission
Spacecraft
Bus & Motor
SOZ, Unknown motor
Mass
56 kg wet, 56 kg dry
Launch date (UTC)
2010-03-01 (16 years ago)
Launch vehicle
Unknown
Launch site
Tyuratam Missile And Space Complex (TTMTR)
Object type
Payload
Rocket body
Debris
Shape & HBR
Cyl, 0.6 m
Radar Cross Section
0.660 m², Medium (>0.1 m² and < 1m²)

Expand to show TLE details & history
Last TLE update: 18 hours ago

TLE from 18 hours ago
0 SL-12 R/B(AUX MOTOR)
1 36406U 10007G   26033.64421214  .00000064  00000-0  37844-3 0  9994
2 36406  64.6434 260.9148 5666756 331.4397   6.8062  4.23089970177536
Epoch: 2026-02-02T15:27Z
TLE epoch observation values (Epoch: 2026-02-02T15:27:39.928Z)
Latitude
-0.0001°
Longitude
-103.82239°
Altitude
947.735 km
Speed
9.174 km/s
True Right ascension
17h 23m 43s
True Declination
0° 00' 00"
Sunlit
Object was in daylight at epoch
Visualization orbit readout
Latitude
Unknown
Longitude
Unknown
Altitude
Unknown
Speed
Unknown
Apparent Right ascension
Unknown
Apparent Declination
Unknown
Sunlit
N/A
Visualization observer readout
Local Sidereal Time
11:21:27
Azimuth
Unknown
Elevation
Unknown
Doppler factor
Unknown
Orbital elements
Apogee altitude
18,918.524 km
Perigee altitude
618.628 km
Semi-major axis
16,146.713 km
Eccentricity
0.56668
Inclination
64.6434°
RAAN
260.9148°
Arg. of periapsis
331.4397°
True anomaly
28.94861°
Mean anomaly
6.8062°
Eccentric anomaly
15.46239°
Mean motion
1.05783 °/min
Orbital period
340.32 mins
BSTAR
0.00037844
Loading maneuver chart data...
Computing Atmospheric mass density...
Loading historical data...
Loading historical data...
Loading historical data...
Loading historical data...
Loading historical data...
Loading historical data...
Loading historical data...

Documentation

Showing up to 5 results
|